YAOGAN-26

Last updated on Thu Sep 24 2026 00:03:03 GMT+0000 (Coordinated Universal Time)

1 40362U 14088A 26266.63512128 .00017041 00000+0 29399-3 0 9993 2 40362 97.0706 264.8291 0005186 65.0670 295.1121 15.51071294652944
UTC large
Height (km)
Speed (km/s)
/
Latitude / Longitude
Inclination (degrees)
Orbital Period (minutes)
Azimuth
Elevation
Range (km)
Doppler Factor

Next 0 passes for location: London (51.5072 / 0.1276)

No passes found over London.
YAOGAN-26